Weather History for Crestview, FL

Change the Weather History Date:

Sunday, November 6, 2011

  Actual Average Record
Temperature  
Mean Temperature 58 °F -  
Max Temperature 74 °F - - ()
Min Temperature 41 °F - - ()
Degree Days  
Heating Degree Days 8    
Growing Degree Days 8 (Base 50)    
Moisture  
Dew Point 45 °F    
Average Humidity 66    
Maximum Humidity 79    
Minimum Humidity 50    
Precipitation  
Precipitation 0.00 in - - ()
Sea Level Pressure  
Sea Level Pressure 30.25 in    
Wind  
Wind Speed 6 mph (NE)    
Max Wind Speed 9 mph    
Max Gust Speed -    
Visibility 10 miles    
Events      
T = Trace of Precipitation, MM = Missing Value Source: NWS Daily Summary

Daily Weather History Graph

Daily Weather History Graph

Search for Another Location

Airport:

Trip Planner

Search our weather history database for the weather conditions in past years. The results will help you decide how hot, cold, wet, or windy it might be!

Date:

Astronomy

Nov. 06, 2011 Rise Set
Actual Time 6:04 AM CST 4:54 PM CST
Civil Twilight 5:39 AM CST 5:19 PM CST
Nautical Twilight 5:10 AM CST 5:48 PM CST
Astronomical Twilight 4:42 AM CST 6:16 PM CST
Moon 2:27 PM CST (11/6) 2:23 AM CST (11/6)
Length of Visible Light 11h 39m
Length of Day
10h 49m
Waxing Gibbous, 86% of the Moon is Illuminated
Nov 6
Waxing Gibbous
Nov 10
Full
Nov 18
Last Quarter
Nov 25
New
Dec 2
First Quarter

Hourly Weather History & Observations

Time (CST) Temp. Windchill Dew Point Humidity Pressure Visibility Wind Dir Wind Speed Gust Speed Precip Events Conditions
12:55 AM 45.0 °F 42.6 °F 34.3 °F 66% 30.22 in 10.0 mi ENE 4.6 mph - N/A   Clear
1:55 AM 44.8 °F 41.6 °F 34.3 °F 67% 30.22 in 10.0 mi ENE 5.8 mph - N/A   Clear
1:55 AM 46.4 °F 42.9 °F 35.6 °F 66% 30.22 in 10.0 mi ENE 6.9 mph - N/A   Mostly Cloudy
2:55 AM 47.7 °F - 36.1 °F 64% 30.23 in 10.0 mi NE 6.9 mph - N/A   Overcast
3:02 AM 46.4 °F 44.3 °F 35.6 °F 66% 30.23 in 10.0 mi NE 4.6 mph - N/A   Scattered Clouds
3:55 AM 45.7 °F - 36.5 °F 70% 30.25 in 10.0 mi Calm Calm - N/A   Overcast
4:55 AM 42.3 °F 39.4 °F 35.4 °F 77% 30.26 in 10.0 mi NE 4.6 mph - N/A   Clear
5:55 AM 41.7 °F 39.8 °F 35.8 °F 79% 30.27 in 10.0 mi NNE 3.5 mph - N/A   Clear
6:55 AM 43.0 °F 39.5 °F 36.7 °F 78% 30.29 in 10.0 mi NNE 5.8 mph - N/A   Scattered Clouds
7:28 AM 46.4 °F 42.4 °F 39.2 °F 76% 30.29 in 10.0 mi NNE 8.1 mph - N/A   Mostly Cloudy
7:55 AM 48.6 °F - 39.6 °F 71% 30.31 in 10.0 mi NNE 8.1 mph - N/A   Mostly Cloudy
9:55 AM 58.1 °F - 46.0 °F 64% 30.32 in 10.0 mi NE 5.8 mph - N/A   Mostly Cloudy
10:55 AM 64.8 °F - 48.6 °F 56% 30.30 in 10.0 mi NNE 9.2 mph - N/A   Partly Cloudy
11:55 AM 68.4 °F - 50.4 °F 53% 30.27 in 10.0 mi NE 8.1 mph - N/A   Clear
12:55 PM 71.6 °F - 52.5 °F 51% 30.24 in 10.0 mi NE 6.9 mph - N/A   Clear
1:55 PM 72.7 °F - 54.0 °F 52% 30.22 in 10.0 mi NE 6.9 mph - N/A   Clear
2:55 PM 74.5 °F - 54.7 °F 50% 30.21 in 10.0 mi NE 5.8 mph - N/A   Clear
3:55 PM 73.2 °F - 55.2 °F 53% 30.21 in 10.0 mi ENE 9.2 mph - N/A   Clear
4:55 PM 68.5 °F - 54.9 °F 62% 30.22 in 10.0 mi ENE 3.5 mph - N/A   Partly Cloudy
5:55 PM 65.1 °F - 54.1 °F 68% 30.24 in 10.0 mi NE 4.6 mph - N/A   Clear
6:55 PM 63.1 °F - 53.2 °F 70% 30.25 in 10.0 mi ENE 3.5 mph - N/A   Clear
7:55 PM 62.8 °F - 53.4 °F 71% 30.26 in 10.0 mi ENE 4.6 mph - N/A   Overcast
8:55 PM 59.7 °F - 53.1 °F 79% 30.27 in 10.0 mi NE 3.5 mph - N/A   Clear
9:55 PM 61.2 °F - 53.6 °F 76% 30.27 in 10.0 mi ENE 5.8 mph - N/A   Clear
10:55 PM 61.3 °F - 54.1 °F 77% 30.28 in 10.0 mi East 8.1 mph - N/A   Clear